Location: ???? ??
(36.0534°N, 43.5630°E)
Time: 16:57:38
(UTC+00:00)

Hubble Space Telescope - Visible Passes

Search period start: 17 November 2019 00:00
Search period end: 27 November 2019 00:00
Orbit: 536 x 540 km, 28.5° (Epoch: 16 November)

Date Brightness Start Highest point End Pass type
(mag) Time Alt. Az. Time Alt. Az. Time Alt. Az.
18 Nov 3.1 15:04:24 10° S 15:06:02 12° SSE 15:07:41 10° SE visible
18 Nov 3.9 16:43:14 10° SW 16:43:18 10° SW 16:43:18 10° SW visible
19 Nov 3.0 14:53:03 10° SSW 14:55:20 14° SSE 14:57:37 10° SE visible
19 Nov 3.5 16:32:28 10° SW 16:33:21 15° SW 16:33:21 15° SW visible
20 Nov 2.9 14:41:56 10° SSW 14:44:38 17° SSE 14:47:20 10° ESE visible
20 Nov 3.1 16:21:46 10° SW 16:23:22 19° SW 16:23:22 19° SW visible
21 Nov 2.8 14:30:58 10° SSW 14:33:57 19° SSE 14:36:56 10° ESE visible
21 Nov 2.7 16:11:05 10° WSW 16:13:24 24° SSW 16:13:24 24° SSW visible
22 Nov 2.7 14:20:04 10° SW 14:23:16 22° SSE 14:26:28 10° ESE visible
22 Nov 2.4 16:00:25 10° WSW 16:03:25 27° SSW 16:03:25 27° SSW visible
23 Nov 2.2 15:49:47 10° WSW 15:53:19 28° S 15:53:28 27° S visible
24 Nov 2.3 15:39:11 10° WSW 15:42:39 26° S 15:43:34 24° SSE visible
25 Nov 2.5 15:28:36 10° WSW 15:31:59 25° S 15:33:43 19° SSE visible
26 Nov 2.7 15:18:03 10° WSW 15:21:19 23° S 15:23:56 13° SE visible
